Hourly Weather Rudnyy

Today, 22 April, Thursday

Time Temperature Precipitation Wind Pressure Humidity
00:00 +7°C° 0 mm 1 mps 741 mmHg 49%
01:00 +7°C° 0 mm 1 mps 741 mmHg 49%
02:00 +7°C° 0 mm 1 mps 741 mmHg 49%
03:00 +7°C° 0 mm 1 mps 741 mmHg 48%
04:00 +7°C° 0 mm 1 mps 741 mmHg 47%
05:00 +6°C° 0 mm 0 mps 742 mmHg 47%
06:00 +6°C° 0 mm 0 mps 742 mmHg 46%
07:00 +10°C° 0 mm 1 mps 742 mmHg 40%
08:00 +13°C° 0 mm 1 mps 742 mmHg 34%
09:00 +16°C° 0 mm 2 mps 742 mmHg 28%
10:00 +17°C° 0 mm 2 mps 742 mmHg 27%
11:00 +18°C° 0 mm 2 mps 742 mmHg 26%
12:00 +19°C° 0 mm 3 mps 742 mmHg 24%
13:00 +19°C° 0 mm 3 mps 742 mmHg 25%
14:00 +19°C° 0 mm 3 mps 742 mmHg 25%
15:00 +19°C° 0 mm 3 mps 741 mmHg 26%
16:00 +17°C° 0 mm 3 mps 742 mmHg 32%
17:00 +15°C° 0 mm 2 mps 742 mmHg 38%
18:00 +13°C° 0 mm 2 mps 742 mmHg 44%
19:00 +10°C° 0 mm 1 mps 743 mmHg 50%
20:00 +8°C° 0 mm 1 mps 743 mmHg 57%
21:00 +6°C° 0 mm 1 mps 744 mmHg 64%
22:00 +6°C° 0 mm 1 mps 744 mmHg 64%
23:00 +5°C° 0 mm 0 mps 744 mmHg 65%

Tomorrow, 23 April, Friday

Time Temperature Precipitation Wind Pressure Humidity
00:00 +4°C° 0 mm 0 mps 744 mmHg 66%
01:00 +5°C° 0 mm 0 mps 743 mmHg 65%
02:00 +5°C° 0 mm 0 mps 743 mmHg 64%
03:00 +5°C° 0 mm 0 mps 743 mmHg 63%
04:00 +7°C° 0 mm 1 mps 743 mmHg 62%
05:00 +7°C° 0 mm 1 mps 743 mmHg 60%
06:00 +8°C° 0 mm 1 mps 743 mmHg 58%
07:00 +12°C° 0 mm 1 mps 742 mmHg 50%
08:00 +15°C° 0 mm 1 mps 742 mmHg 41%
09:00 +20°C° 0 mm 1 mps 742 mmHg 32%
10:00 +22°C° 0 mm 1 mps 742 mmHg 29%
11:00 +23°C° 0 mm 1 mps 741 mmHg 26%
12:00 +25°C° 0 mm 2 mps 741 mmHg 22%
13:00 +25°C° 0 mm 2 mps 741 mmHg 22%
14:00 +25°C° 0 mm 3 mps 740 mmHg 21%
15:00 +25°C° 0 mm 4 mps 740 mmHg 21%
16:00 +22°C° 0 mm 4 mps 740 mmHg 26%
17:00 +20°C° 0 mm 3 mps 740 mmHg 32%
18:00 +18°C° 0 mm 3 mps 740 mmHg 38%
19:00 +17°C° 0 mm 3 mps 740 mmHg 45%
20:00 +15°C° 0 mm 2 mps 740 mmHg 53%
21:00 +14°C° 0 mm 2 mps 740 mmHg 60%
22:00 +13°C° 0 mm 2 mps 740 mmHg 64%
23:00 +13°C° 0 mm 1 mps 740 mmHg 67%

Day after tomorrow, 24 April, Saturday

Time Temperature Precipitation Wind Pressure Humidity
00:00 +12°C° 0 mm 1 mps 740 mmHg 71%
01:00 +12°C° 0 mm 1 mps 740 mmHg 73%
02:00 +12°C° 0 mm 1 mps 739 mmHg 75%
03:00 +12°C° 0 mm 1 mps 739 mmHg 77%
04:00 +12°C° 0 mm 1 mps 739 mmHg 79%
05:00 +12°C° 0 mm 1 mps 739 mmHg 80%
06:00 +12°C° 0 mm 1 mps 739 mmHg 82%
07:00 +13°C° 0 mm 2 mps 738 mmHg 78%
08:00 +12°C° 0 mm 3 mps 738 mmHg 74%
09:00 +13°C° 0 mm 3 mps 738 mmHg 71%
10:00 +13°C° 0 mm 4 mps 738 mmHg 67%
11:00 +13°C° 0 mm 4 mps 738 mmHg 63%
12:00 +13°C° 0 mm 4 mps 737 mmHg 59%
13:00 +11°C° 0.3 mm 4 mps 738 mmHg 68%
14:00 +7°C° 0.3 mm 4 mps 738 mmHg 76%
15:00 +5°C° 0.3 mm 4 mps 738 mmHg 85%
16:00 +4°C° 0.3 mm 3 mps 738 mmHg 83%
17:00 +4°C° 0.3 mm 3 mps 738 mmHg 80%
18:00 +3°C° 0.3 mm 3 mps 738 mmHg 78%
19:00 +3°C° 0 mm 2 mps 738 mmHg 81%
20:00 +2°C° 0 mm 2 mps 738 mmHg 84%
21:00 +1°C° 0 mm 2 mps 738 mmHg 87%
22:00 +1°C° 0 mm 2 mps 738 mmHg 88%
23:00 -1°C° 0 mm 2 mps 738 mmHg 88%

25 April, Sunday

Time Temperature Precipitation Wind Pressure Humidity
00:00 -1°C° 0 mm 2 mps 738 mmHg 88%
01:00 -2°C° 0 mm 2 mps 738 mmHg 87%
02:00 -2°C° 0 mm 2 mps 738 mmHg 85%
03:00 -2°C° 0 mm 2 mps 738 mmHg 84%
04:00 -2°C° 0 mm 2 mps 738 mmHg 81%
05:00 -1°C° 0 mm 2 mps 737 mmHg 78%
06:00 -1°C° 0 mm 2 mps 737 mmHg 75%
07:00 +2°C° 0 mm 3 mps 737 mmHg 63%
08:00 +3°C° 0 mm 5 mps 736 mmHg 51%
09:00 +6°C° 0 mm 7 mps 736 mmHg 39%
10:00 +8°C° 0 mm 7 mps 735 mmHg 34%
11:00 +9°C° 0 mm 8 mps 735 mmHg 30%
12:00 +10°C° 0 mm 8 mps 735 mmHg 25%
13:00 +10°C° 0 mm 8 mps 735 mmHg 25%
14:00 +10°C° 0 mm 8 mps 734 mmHg 26%
15:00 +10°C° 0 mm 7 mps 734 mmHg 26%
16:00 +10°C° 0 mm 7 mps 735 mmHg 28%
17:00 +9°C° 0 mm 6 mps 735 mmHg 30%
18:00 +8°C° 0 mm 5 mps 736 mmHg 32%
19:00 +6°C° 0 mm 4 mps 736 mmHg 37%
20:00 +5°C° 0 mm 2 mps 737 mmHg 41%
21:00 +3°C° 0 mm 1 mps 738 mmHg 46%
22:00 +3°C° 0 mm 1 mps 738 mmHg 48%
23:00 +2°C° 0 mm 1 mps 739 mmHg 50%

26 April, Monday

Time Temperature Precipitation Wind Pressure Humidity
00:00 +2°C° 0 mm 1 mps 739 mmHg 52%
01:00 +1°C° 0 mm 1 mps 739 mmHg 52%
02:00 +1°C° 0 mm 1 mps 739 mmHg 53%
03:00 +1°C° 0 mm 1 mps 740 mmHg 53%
04:00 +1°C° 0 mm 1 mps 740 mmHg 51%
05:00 +2°C° 0 mm 1 mps 740 mmHg 49%
06:00 +2°C° 0 mm 0 mps 740 mmHg 47%
07:00 +6°C° 0 mm 1 mps 740 mmHg 40%
08:00 +9°C° 0 mm 1 mps 740 mmHg 32%
09:00 +12°C° 0 mm 1 mps 740 mmHg 25%
10:00 +13°C° 0 mm 1 mps 740 mmHg 24%
11:00 +15°C° 0 mm 1 mps 739 mmHg 22%
12:00 +16°C° 0 mm 2 mps 739 mmHg 21%
13:00 +16°C° 0 mm 2 mps 738 mmHg 24%
14:00 +16°C° 0 mm 2 mps 738 mmHg 27%
15:00 +14°C° 0 mm 3 mps 737 mmHg 30%
16:00 +13°C° 0 mm 3 mps 738 mmHg 35%
17:00 +11°C° 0 mm 3 mps 738 mmHg 40%
18:00 +10°C° 0 mm 2 mps 738 mmHg 45%
19:00 +8°C° 0 mm 2 mps 738 mmHg 51%
20:00 +7°C° 0 mm 1 mps 739 mmHg 57%
21:00 +5°C° 0 mm 1 mps 739 mmHg 63%
22:00 +5°C° 0 mm 1 mps 739 mmHg 65%
23:00 +5°C° 0 mm 1 mps 738 mmHg 66%

27 April, Tuesday

Time Temperature Precipitation Wind Pressure Humidity
00:00 +4°C° 0 mm 1 mps 738 mmHg 68%
01:00 +4°C° 0 mm 1 mps 738 mmHg 68%
02:00 +3°C° 0 mm 0 mps 738 mmHg 68%
03:00 +3°C° 0 mm 0 mps 738 mmHg 69%
04:00 +4°C° 0 mm 0 mps 738 mmHg 68%
05:00 +4°C° 0 mm 0 mps 737 mmHg 68%
06:00 +4°C° 0 mm 0 mps 737 mmHg 67%
07:00 +8°C° 0 mm 1 mps 737 mmHg 58%
08:00 +11°C° 0 mm 1 mps 736 mmHg 50%
09:00 +14°C° 0 mm 2 mps 736 mmHg 41%
10:00 +16°C° 0 mm 3 mps 736 mmHg 38%
11:00 +17°C° 0 mm 4 mps 735 mmHg 35%
12:00 +19°C° 0 mm 4 mps 735 mmHg 32%
13:00 +19°C° 0 mm 5 mps 734 mmHg 32%
14:00 +17°C° 0 mm 5 mps 734 mmHg 32%
15:00 +17°C° 0 mm 6 mps 734 mmHg 32%
16:00 +15°C° 0 mm 5 mps 734 mmHg 39%
17:00 +13°C° 0 mm 4 mps 734 mmHg 46%
18:00 +11°C° 0 mm 3 mps 735 mmHg 53%
19:00 +10°C° 0 mm 3 mps 735 mmHg 61%
20:00 +9°C° 0 mm 2 mps 735 mmHg 69%
21:00 +7°C° 0 mm 2 mps 735 mmHg 76%
22:00 +8°C° 0 mm 1 mps 735 mmHg 80%
23:00 +8°C° 0 mm 1 mps 734 mmHg 84%
Show more